Вернуться в каталог

CZ-4 DEB

АктивенSSO
NORAD 37615·DEBRIS·🇨🇳 China

Запущен Sep 3, 1990 с Taiyuan Satellite Launch Center

Loading…

Ближайшие Пролёты (ближайшие 24 часа)

TLE

СвежийSource: Space-Track

Эпоха: Sep 14, 2026, 06:10 UTC

1 37615U 90081DB  26257.25728798  .00000720  00000-0  26751-3 0  9993
2 37615  98.5503 255.8728 0014850 358.6569   1.4574 14.35108268637488

Отслеживайте CZ-4 DEB в реальном времени с AllMySat

Download on the App Store